{"data":{"norad_id":39460,"epoch":"2026-05-25T02:29:00.063744Z","epoch_age_seconds":63170,"freshness":"FRESH","line1":"1 39460U 13071A   26145.10347296 -.00000272  00000+0  00000+0 0  9994","line2":"2 39460   0.0187 302.2226 0002655 127.0672 305.6645  1.00271666 44196","mean_motion":1.00271666,"eccentricity":0.0002655,"inclination_deg":0.0187,"raan_deg":302.2226,"arg_perigee_deg":127.0672,"mean_anomaly_deg":305.6645,"bstar":0,"rev_number":4419,"period_min":1436.0986083546,"perigee_km":35775.433576051,"apogee_km":35797.823066436,"semimajor_km":42164.765321243,"source":"CELESTRAK","updated_at":"2026-05-25T13:38:14.508310Z"}}